Zurück zum Katalog

STARLINK-34881

AktivKommunikationVLEO
NORAD 65347·PAYLOAD·🇺🇸 United States

Gestartet Aug 27, 2025 von Cape Canaveral Space Force Station

Loading…

Nächste Überflüge (nächste 24 Stunden)

TLE

AktuellSource: CelesTrak SupGP

Epoche: Sep 15, 2026, 02:33 UTC

1 65347C 25189AA  26258.10673611 -.00013673  00000+0 -43981-3 0  2585
2 65347  53.1600  45.5005 0001092  84.8776  50.1160 15.31700738    12

Verfolge STARLINK-34881 in Echtzeit mit AllMySat

Download on the App Store